Weather History for Washington, MO

Change the Weather History Date:

Tuesday, April 2, 2013

  Actual Average (KSTL) Record (KSTL)
Temperature  
Mean Temperature 37 °F 53 °F  
Max Temperature 48 °F 63 °F 89 °F (2012)
Min Temperature 26 °F 42 °F 23 °F (1961)
Degree Days  
Heating Degree Days 28 13  
Month to date heating degree days 27  
Since 1 July heating degree days 4213  
Cooling Degree Days 0 1  
Month to date cooling degree days 2  
Year to date cooling degree days 9  
Moisture  
Dew Point 18 °F    
Average Humidity 46    
Maximum Humidity 80    
Minimum Humidity 25    
Precipitation  
Precipitation 0.00 in 0.12 in 2.53 in (2014)
Month to date precipitation 0.25  
Year to date precipitation 8.21  
Snow  
Snow 0.00 in 0.10 in 2.50 in (1901)
Month to date snowfall 0.1  
Since 1 July snowfall 17.4  
Snow Depth -    
Sea Level Pressure  
Sea Level Pressure 30.29 in    
Wind  
Wind Speed 2 mph (North)    
Max Wind Speed 7 mph    
Max Gust Speed -    
Visibility 10 miles    
Events      
T = Trace of Precipitation, MM = Missing Value Source: NWS Daily Summary

Daily Weather History Graph

Daily Weather History Graph

Search for Another Location

Airport:

Trip Planner

Search our weather history database for the weather conditions in past years. The results will help you decide how hot, cold, wet, or windy it might be!

Date:

Astronomy

Apr. 02, 2013 Rise Set
Actual Time 6:46 AM CDT 7:28 PM CDT
Civil Twilight 6:20 AM CDT 7:55 PM CDT
Nautical Twilight 5:48 AM CDT 8:27 PM CDT
Astronomical Twilight 5:15 AM CDT 8:59 PM CDT
Moon 1:30 AM CDT (4/2) 11:40 AM CDT (4/2)
Length of Visible Light 13h 35m
Length of Day
12h 41m
Waning Gibbous, 55% of the Moon is Illuminated
Apr 2
Waning Gibbous
Apr 2
Last Quarter
Apr 10
New
Apr 18
First Quarter
Apr 25
Full

Hourly Weather History & Observations

Time (CDT) Temp. Windchill Dew Point Humidity Pressure Visibility Wind Dir Wind Speed Gust Speed Precip Events Conditions
12:15 AM 32.0 °F - 23.0 °F 69% 30.24 in 10.0 mi Calm Calm - N/A   Clear
12:35 AM 33.8 °F - 21.2 °F 60% 30.25 in 10.0 mi Calm Calm - N/A   Clear
12:55 AM 35.6 °F 31.7 °F 17.6 °F 48% 30.26 in 10.0 mi North 4.6 mph - N/A   Clear
1:15 AM 35.6 °F 31.7 °F 17.6 °F 48% 30.26 in 10.0 mi North 4.6 mph - N/A   Clear
1:35 AM 35.6 °F 31.7 °F 17.6 °F 48% 30.26 in 10.0 mi North 4.6 mph - N/A   Clear
1:55 AM 35.6 °F 31.7 °F 17.6 °F 48% 30.27 in 10.0 mi North 4.6 mph - N/A   Clear
2:15 AM 33.8 °F 28.6 °F 17.6 °F 52% 30.27 in 10.0 mi NNW 5.8 mph - N/A   Clear
2:35 AM 33.8 °F 28.6 °F 17.6 °F 52% 30.27 in 10.0 mi NNW 5.8 mph - N/A   Clear
2:55 AM 32.0 °F 27.5 °F 17.6 °F 55% 30.27 in 10.0 mi NNW 4.6 mph - N/A   Clear
3:15 AM 32.0 °F - 17.6 °F 55% 30.27 in 10.0 mi Calm Calm - N/A   Clear
3:35 AM 32.0 °F - 17.6 °F 55% 30.27 in 10.0 mi Calm Calm - N/A   Clear
3:55 AM 32.0 °F - 17.6 °F 55% 30.28 in 10.0 mi Calm Calm - N/A   Clear
4:15 AM 32.0 °F - 17.6 °F 55% 30.28 in 10.0 mi Calm Calm - N/A   Clear
4:35 AM 32.0 °F - 19.4 °F 60% 30.28 in 10.0 mi Calm Calm - N/A   Clear
4:55 AM 32.0 °F - 19.4 °F 60% 30.28 in 10.0 mi Calm Calm - N/A   Clear
5:15 AM 30.2 °F - 19.4 °F 64% 30.29 in 10.0 mi Calm Calm - N/A   Clear
5:35 AM 28.4 °F - 19.4 °F 69% 30.30 in 10.0 mi Calm Calm - N/A   Clear
5:55 AM 28.4 °F - 19.4 °F 69% 30.31 in 10.0 mi Calm Calm - N/A   Clear
6:15 AM 28.4 °F - 21.2 °F 74% 30.31 in 10.0 mi Calm Calm - N/A   Clear
6:35 AM 28.4 °F - 21.2 °F 74% 30.32 in 10.0 mi Calm Calm - N/A   Clear
6:55 AM 28.4 °F - 19.4 °F 69% 30.33 in 10.0 mi Calm Calm - N/A   Clear
7:15 AM 28.4 °F - 21.2 °F 74% 30.32 in 10.0 mi Calm Calm - N/A   Clear
7:35 AM 26.6 °F - 21.2 °F 80% 30.35 in 10.0 mi Calm Calm - N/A   Clear
8:15 AM 32.0 °F - 19.4 °F 60% 30.35 in 10.0 mi Calm Calm - N/A   Clear
8:35 AM 32.0 °F 28.7 °F 19.4 °F 60% 30.35 in 10.0 mi North 3.5 mph - N/A   Clear
8:55 AM 33.8 °F - 17.6 °F 52% 30.35 in 10.0 mi Calm Calm - N/A   Clear
9:35 AM 35.6 °F - 15.8 °F 44% 30.35 in 10.0 mi Calm Calm - N/A   Clear
9:55 AM 35.6 °F - 17.6 °F 48% 30.35 in 10.0 mi Calm Calm - N/A   Clear
10:15 AM 35.6 °F - 17.6 °F 48% 30.35 in 10.0 mi Calm Calm - N/A   Clear
10:35 AM 37.4 °F - 17.6 °F 45% 30.35 in 10.0 mi Calm Calm - N/A   Clear
10:55 AM 37.4 °F - 17.6 °F 45% 30.35 in 10.0 mi Calm Calm - N/A   Clear
11:15 AM 37.4 °F - 15.8 °F 41% 30.34 in 10.0 mi Calm Calm - N/A   Clear
11:35 AM 39.2 °F - 17.6 °F 42% 30.34 in 10.0 mi Calm Calm - N/A   Clear
11:55 AM 39.2 °F 35.9 °F 17.6 °F 42% 30.33 in 10.0 mi NW 4.6 mph - N/A   Clear
12:15 PM 41.0 °F 37.1 °F 15.8 °F 36% 30.33 in 10.0 mi NNE 5.8 mph - N/A   Clear
12:35 PM 41.0 °F - 15.8 °F 36% 30.33 in 10.0 mi Calm Calm - N/A   Clear
12:55 PM 42.8 °F 40.1 °F 15.8 °F 34% 30.32 in 10.0 mi SSE 4.6 mph - N/A   Clear
1:15 PM 44.6 °F 41.4 °F 17.6 °F 34% 30.31 in 10.0 mi SSE 5.8 mph - N/A   Clear
1:35 PM 44.6 °F 41.4 °F 15.8 °F 31% 30.30 in 10.0 mi South 5.8 mph - N/A   Clear
1:55 PM 44.6 °F 43.1 °F 15.8 °F 31% 30.30 in 10.0 mi NE 3.5 mph - N/A   Clear
2:15 PM 44.6 °F - 12.2 °F 27% 30.29 in 10.0 mi Calm Calm - N/A   Clear
2:35 PM 46.4 °F 44.3 °F 12.2 °F 25% 30.29 in 10.0 mi NW 4.6 mph - N/A   Clear
3:15 PM 46.4 °F - 12.2 °F 25% 30.28 in 10.0 mi Calm Calm - N/A   Clear
3:35 PM 48.2 °F - 15.8 °F 27% 30.27 in 10.0 mi Calm Calm - N/A   Clear
3:55 PM 48.2 °F - 14.0 °F 25% 30.27 in 10.0 mi ENE 6.9 mph - N/A   Clear
4:15 PM 46.4 °F - 14.0 °F 27% 30.26 in 10.0 mi Calm Calm - N/A   Clear
4:35 PM 46.4 °F - 14.0 °F 27% 30.26 in 10.0 mi Calm Calm - N/A   Clear
4:55 PM 48.2 °F - 14.0 °F 25% 30.26 in 10.0 mi Calm Calm - N/A   Clear
5:15 PM 48.2 °F - 15.8 °F 27% 30.26 in 10.0 mi Calm Calm - N/A   Clear
5:35 PM 48.2 °F - 17.6 °F 30% 30.26 in 10.0 mi Calm Calm - N/A   Clear
5:55 PM 48.2 °F - 17.6 °F 30% 30.26 in 10.0 mi NNE 4.6 mph - N/A   Clear
6:15 PM 48.2 °F - 17.6 °F 30% 30.26 in 10.0 mi NNW 6.9 mph - N/A   Clear
6:35 PM 48.2 °F - 15.8 °F 27% 30.26 in 10.0 mi Calm Calm - N/A   Clear
6:55 PM 46.4 °F 45.2 °F 15.8 °F 29% 30.27 in 10.0 mi NE 3.5 mph - N/A   Clear
7:15 PM 46.4 °F - 15.8 °F 29% 30.27 in 10.0 mi Calm Calm - N/A   Clear
7:35 PM 44.6 °F - 17.6 °F 34% 30.27 in 10.0 mi Calm Calm - N/A   Clear
7:55 PM 42.8 °F - 17.6 °F 36% 30.27 in 10.0 mi Calm Calm - N/A   Clear
8:15 PM 42.8 °F - 17.6 °F 36% 30.27 in 10.0 mi Calm Calm - N/A   Clear
8:35 PM 42.8 °F - 15.8 °F 34% 30.28 in 10.0 mi Calm Calm - N/A   Clear
8:55 PM 41.0 °F - 15.8 °F 36% 30.28 in 10.0 mi Calm Calm - N/A   Clear
9:15 PM 41.0 °F - 17.6 °F 39% 30.29 in 10.0 mi Calm Calm - N/A   Clear
9:35 PM 41.0 °F - 17.6 °F 39% 30.30 in 10.0 mi Calm Calm - N/A   Clear
9:55 PM 39.2 °F - 17.6 °F 42% 30.30 in 10.0 mi Calm Calm - N/A   Clear
10:15 PM 39.2 °F - 19.4 °F 45% 30.30 in 10.0 mi Calm Calm - N/A   Clear
10:35 PM 35.6 °F - 23.0 °F 60% 30.30 in 10.0 mi Calm Calm - N/A   Clear
10:55 PM 35.6 °F - 24.8 °F 65% 30.30 in 10.0 mi Calm Calm - N/A   Clear
11:15 PM 35.6 °F - 24.8 °F 65% 30.30 in 10.0 mi Calm Calm - N/A   Clear
11:35 PM 35.6 °F - 24.8 °F 65% 30.30 in 10.0 mi Calm Calm - N/A   Clear
11:55 PM 33.8 °F - 23.0 °F 65% 30.30 in 10.0 mi Calm Calm - N/A   Clear